Time,TemperatureF,DewpointF,PressureIn,WindDirection,WindDirectionDegrees,WindSpeedMPH,WindSpeedGustMPH,Humidity,HourlyPrecipIn,Conditions,Clouds,dailyrainin,SoftwareType,DateUTC
2013-09-06 00:04:00,40.1,36.8,29.56,NNW,328,0.0,0.0,88,-99.99,,,-99.99,WSDL version 423,2013-09-06 04:04:00,
2013-09-06 00:09:00,40.1,37.0,29.56,NW,315,0.0,0.0,89,-99.99,,,-99.99,WSDL version 423,2013-09-06 04:09:00,
2013-09-06 00:14:00,39.9,36.9,29.56,NW,315,0.0,0.0,89,-99.99,,,-99.99,WSDL version 423,2013-09-06 04:14:00,
2013-09-06 00:19:00,39.7,36.9,29.56,NW,315,0.0,0.0,89,-99.99,,,-99.99,WSDL version 423,2013-09-06 04:19:00,
2013-09-06 00:24:00,39.5,36.5,29.56,NW,315,0.0,0.0,89,-99.99,,,-99.99,WSDL version 423,2013-09-06 04:24:00,
2013-09-06 00:29:00,39.5,36.5,29.56,NW,315,0.0,0.0,89,-99.99,,,-99.99,WSDL version 423,2013-09-06 04:29:00,
2013-09-06 00:34:00,39.4,36.7,29.56,NW,315,0.0,0.0,90,-99.99,,,-99.99,WSDL version 423,2013-09-06 04:34:00,
2013-09-06 00:39:00,39.4,36.7,29.56,NW,323,0.0,0.0,90,-99.99,,,-99.99,WSDL version 423,2013-09-06 04:39:00,
2013-09-06 00:44:00,39.3,36.9,29.56,North,349,0.1,1.3,91,-99.99,,,-99.99,WSDL version 423,2013-09-06 04:44:00,
2013-09-06 00:49:00,39.2,37.0,29.56,NNE,23,0.0,1.3,92,-99.99,,,-99.99,WSDL version 423,2013-09-06 04:49:00,
2013-09-06 00:54:00,39.2,37.1,29.56,NE,45,0.0,0.0,92,-99.99,,,-99.99,WSDL version 423,2013-09-06 04:54:00,
2013-09-06 00:59:00,39.1,37.4,29.56,North,6,0.0,0.0,93,-99.99,,,-99.99,WSDL version 423,2013-09-06 04:59:00,
2013-09-06 01:04:00,39.1,37.4,29.56,NW,323,0.9,1.6,93,-99.99,,,-99.99,WSDL version 423,2013-09-06 05:04:00,
2013-09-06 01:09:00,39.2,37.8,29.59,NNW,340,0.4,2.0,96,-99.99,,,-99.99,WSDL version 423,2013-09-06 05:09:00,
2013-09-06 01:14:00,39.2,38.2,29.59,NNW,348,0.1,2.5,97,-99.99,,,-99.99,WSDL version 423,2013-09-06 05:14:00,
2013-09-06 01:19:00,39.2,38.3,29.59,NNW,341,0.0,2.5,97,-99.99,,,-99.99,WSDL version 423,2013-09-06 05:19:00,
2013-09-06 01:24:00,39.2,38.6,29.56,NNW,338,0.0,1.1,98,-99.99,,,-99.99,WSDL version 423,2013-09-06 05:24:00,
2013-09-06 01:29:00,39.2,38.6,29.56,North,358,0.0,1.1,98,-99.99,,,-99.99,WSDL version 423,2013-09-06 05:29:00,
2013-09-06 01:34:00,39.2,38.6,29.56,NNW,338,0.0,0.0,98,-99.99,,,-99.99,WSDL version 423,2013-09-06 05:34:00,
2013-09-06 01:39:00,39.2,38.6,29.56,NNE,25,0.0,0.0,99,-99.99,,,-99.99,WSDL version 423,2013-09-06 05:39:00,
2013-09-06 01:44:00,38.9,38.7,29.56,ENE,68,0.0,0.0,99,-99.99,,,-99.99,WSDL version 423,2013-09-06 05:44:00,
2013-09-06 01:49:00,38.8,38.6,29.56,SW,225,0.0,0.0,99,-99.99,,,-99.99,WSDL version 423,2013-09-06 05:49:00,
2013-09-06 01:54:00,38.7,38.2,29.56,WSW,248,0.0,0.0,98,-99.99,,,-99.99,WSDL version 423,2013-09-06 05:54:00,
2013-09-06 01:59:00,38.6,38.0,29.56,East,93,0.0,0.0,99,-99.99,,,-99.99,WSDL version 423,2013-09-06 05:59:00,
2013-09-06 02:04:00,38.4,38.2,29.56,NNE,23,0.0,0.0,99,-99.99,,,-99.99,WSDL version 423,2013-09-06 06:04:00,
2013-09-06 02:09:00,38.5,38.2,29.56,NW,315,0.0,0.0,99,-99.99,,,-99.99,WSDL version 423,2013-09-06 06:09:00,
2013-09-06 02:14:00,38.3,38.0,29.56,West,270,0.0,0.0,98,-99.99,,,-99.99,WSDL version 423,2013-09-06 06:14:00,
2013-09-06 02:19:00,38.1,37.5,29.56,West,270,0.0,0.0,98,-99.99,,,-99.99,WSDL version 423,2013-09-06 06:19:00,
2013-09-06 02:24:00,37.9,37.3,29.56,North,358,0.0,0.0,97,-99.99,,,-99.99,WSDL version 423,2013-09-06 06:24:00,
2013-09-06 02:29:00,37.8,37.0,29.56,North,360,0.0,0.0,97,-99.99,,,-99.99,WSDL version 423,2013-09-06 06:29:00,
2013-09-06 02:34:00,37.8,37.1,29.56,North,360,0.0,0.0,98,-99.99,,,-99.99,WSDL version 423,2013-09-06 06:34:00,
2013-09-06 02:39:00,37.6,37.0,29.56,North,10,0.0,0.0,98,-99.99,,,-99.99,WSDL version 423,2013-09-06 06:39:00,
2013-09-06 02:44:00,37.6,37.0,29.56,NNW,340,0.0,0.0,98,-99.99,,,-99.99,WSDL version 423,2013-09-06 06:44:00,
2013-09-06 02:49:00,37.6,37.0,29.56,NNW,338,0.0,0.0,98,-99.99,,,-99.99,WSDL version 423,2013-09-06 06:49:00,
2013-09-06 02:54:00,37.6,37.2,29.56,North,357,0.0,0.0,99,-99.99,,,-99.99,WSDL version 423,2013-09-06 06:54:00,
2013-09-06 02:59:00,37.6,37.3,29.56,NNW,338,0.0,0.0,99,-99.99,,,-99.99,WSDL version 423,2013-09-06 06:59:00,
2013-09-06 03:04:00,37.4,37.1,29.56,NW,315,0.0,0.0,99,-99.99,,,-99.99,WSDL version 423,2013-09-06 07:04:00,
2013-09-06 03:09:00,37.4,37.1,29.56,East,83,0.0,0.0,99,-99.99,,,-99.99,WSDL version 423,2013-09-06 07:09:00,
2013-09-06 03:14:00,37.4,37.1,29.56,NNE,13,0.0,0.0,100,-99.99,,,-99.99,WSDL version 423,2013-09-06 07:14:00,
2013-09-06 03:19:00,37.3,37.0,29.56,North,360,0.0,0.0,99,-99.99,,,-99.99,WSDL version 423,2013-09-06 07:19:00,
2013-09-06 03:24:00,37.2,36.9,29.56,NNW,338,0.0,0.0,99,-99.99,,,-99.99,WSDL version 423,2013-09-06 07:24:00,
2013-09-06 03:29:00,37.2,37.2,29.56,NW,315,0.0,0.0,100,-99.99,,,-99.99,WSDL version 423,2013-09-06 07:29:00,
2013-09-06 03:34:00,37.0,37.0,29.56,NW,325,0.0,0.0,99,-99.99,,,-99.99,WSDL version 423,2013-09-06 07:34:00,
2013-09-06 03:39:00,36.9,36.6,29.56,NNE,20,0.1,1.6,99,-99.99,,,-99.99,WSDL version 423,2013-09-06 07:39:00,
2013-09-06 03:44:00,36.8,36.5,29.56,NNE,17,0.0,1.6,99,-99.99,,,-99.99,WSDL version 423,2013-09-06 07:44:00,
2013-09-06 03:49:00,36.8,36.6,29.56,North,360,0.0,1.1,100,-99.99,,,-99.99,WSDL version 423,2013-09-06 07:49:00,
2013-09-06 03:54:00,36.9,36.9,29.56,NNW,338,0.0,1.1,100,-99.99,,,-99.99,WSDL version 423,2013-09-06 07:54:00,
2013-09-06 03:59:00,36.9,36.9,29.56,NNW,338,0.0,1.1,100,-99.99,,,-99.99,WSDL version 423,2013-09-06 07:59:00,
2013-09-06 04:04:00,36.9,36.9,29.56,NNW,340,0.4,2.0,100,-99.99,,,-99.99,WSDL version 423,2013-09-06 08:04:00,
2013-09-06 04:09:00,36.9,36.9,29.56,NNE,15,0.0,2.0,100,-99.99,,,-99.99,WSDL version 423,2013-09-06 08:09:00,
2013-09-06 04:14:00,36.8,36.8,29.56,NNW,346,0.0,0.0,100,-99.99,,,-99.99,WSDL version 423,2013-09-06 08:14:00,
2013-09-06 04:19:00,36.7,36.7,29.56,NNE,33,0.0,0.0,100,-99.99,,,-99.99,WSDL version 423,2013-09-06 08:19:00,
2013-09-06 04:24:00,36.6,36.6,29.56,NNW,338,0.0,1.3,100,-99.99,,,-99.99,WSDL version 423,2013-09-06 08:24:00,
2013-09-06 04:29:00,36.7,36.7,29.56,NE,45,0.0,1.3,100,-99.99,,,-99.99,WSDL version 423,2013-09-06 08:29:00,
2013-09-06 04:34:00,36.5,36.5,29.56,NE,45,0.0,0.0,100,-99.99,,,-99.99,WSDL version 423,2013-09-06 08:34:00,
2013-09-06 04:39:00,36.4,36.4,29.59,North,357,0.3,1.6,100,-99.99,,,-99.99,WSDL version 423,2013-09-06 08:39:00,
2013-09-06 04:44:00,36.5,36.5,29.59,NW,318,0.0,1.6,100,-99.99,,,-99.99,WSDL version 423,2013-09-06 08:44:00,
2013-09-06 04:49:00,36.5,36.5,29.59,North,8,0.0,1.6,100,-99.99,,,-99.99,WSDL version 423,2013-09-06 08:49:00,
2013-09-06 04:54:00,36.5,36.5,29.59,North,353,0.0,0.0,100,-99.99,,,-99.99,WSDL version 423,2013-09-06 08:54:00,
2013-09-06 04:59:00,36.3,36.3,29.59,North,360,0.0,0.0,100,-99.99,,,-99.99,WSDL version 423,2013-09-06 08:59:00,
2013-09-06 05:04:00,36.2,36.2,29.59,North,360,0.0,0.0,100,-99.99,,,-99.99,WSDL version 423,2013-09-06 09:04:00,
2013-09-06 05:09:00,36.1,36.1,29.56,NNW,338,0.0,0.0,100,-99.99,,,-99.99,WSDL version 423,2013-09-06 09:09:00,
2013-09-06 05:14:00,35.9,35.9,29.56,NNW,338,0.0,0.0,100,-99.99,,,-99.99,WSDL version 423,2013-09-06 09:14:00,
2013-09-06 05:19:00,35.8,35.8,29.56,NE,43,0.0,1.1,100,-99.99,,,-99.99,WSDL version 423,2013-09-06 09:19:00,
2013-09-06 05:24:00,35.8,35.8,29.56,North,360,0.0,1.3,100,-99.99,,,-99.99,WSDL version 423,2013-09-06 09:24:00,
2013-09-06 05:29:00,35.8,35.8,29.56,NNW,340,0.0,1.3,100,-99.99,,,-99.99,WSDL version 423,2013-09-06 09:29:00,
2013-09-06 05:34:00,35.8,35.8,29.56,NE,35,0.0,1.1,100,-99.99,,,-99.99,WSDL version 423,2013-09-06 09:34:00,
2013-09-06 05:39:00,35.7,35.7,29.56,North,3,0.0,1.1,100,-99.99,,,-99.99,WSDL version 423,2013-09-06 09:39:00,
2013-09-06 05:44:00,35.6,35.6,29.56,NE,34,0.0,0.0,100,-99.99,,,-99.99,WSDL version 423,2013-09-06 09:44:00,
2013-09-06 05:49:00,35.6,35.6,29.56,North,354,0.3,1.3,100,-99.99,,,-99.99,WSDL version 423,2013-09-06 09:49:00,
2013-09-06 05:54:00,35.6,35.6,29.59,NNE,23,0.0,1.3,100,-99.99,,,-99.99,WSDL version 423,2013-09-06 09:54:00,
2013-09-06 05:59:00,35.5,35.5,29.59,North,355,0.0,0.0,100,-99.99,,,-99.99,WSDL version 423,2013-09-06 09:59:00,
2013-09-06 06:04:00,35.4,35.4,29.59,NNW,338,0.0,0.0,100,-99.99,,,-99.99,WSDL version 423,2013-09-06 10:04:00,
2013-09-06 06:09:00,35.4,35.4,29.56,West,270,0.0,0.0,100,-99.99,,,-99.99,WSDL version 423,2013-09-06 10:09:00,
2013-09-06 06:14:00,35.2,35.2,29.56,West,270,0.0,0.0,100,-99.99,,,-99.99,WSDL version 423,2013-09-06 10:14:00,
2013-09-06 06:19:00,35.1,35.1,29.56,West,270,0.0,0.0,100,-99.99,,,-99.99,WSDL version 423,2013-09-06 10:19:00,
2013-09-06 06:24:00,35.1,35.1,29.59,West,270,0.0,0.0,100,-99.99,,,-99.99,WSDL version 423,2013-09-06 10:24:00,
2013-09-06 06:29:00,34.9,34.9,29.59,West,270,0.0,0.0,100,-99.99,,,-99.99,WSDL version 423,2013-09-06 10:29:00,
2013-09-06 06:34:00,35.1,35.1,29.59,West,270,0.0,0.0,100,-99.99,,,-99.99,WSDL version 423,2013-09-06 10:34:00,
2013-09-06 06:39:00,35.1,35.1,29.59,NW,310,0.0,0.0,100,-99.99,,,-99.99,WSDL version 423,2013-09-06 10:39:00,
2013-09-06 06:44:00,35.1,35.1,29.59,North,5,0.0,0.0,100,-99.99,,,-99.99,WSDL version 423,2013-09-06 10:44:00,
2013-09-06 06:49:00,35.1,35.1,29.59,North,8,0.0,0.0,100,-99.99,,,-99.99,WSDL version 423,2013-09-06 10:49:00,
2013-09-06 06:54:00,35.1,35.1,29.59,NNW,338,0.0,0.9,100,-99.99,,,-99.99,WSDL version 423,2013-09-06 10:54:00,
2013-09-06 06:59:00,35.2,35.2,29.59,NNW,329,0.0,1.1,100,-99.99,,,-99.99,WSDL version 423,2013-09-06 10:59:00,
2013-09-06 07:04:00,35.5,35.5,29.59,NNW,338,0.0,1.3,100,-99.99,,,-99.99,WSDL version 423,2013-09-06 11:04:00,
2013-09-06 07:09:00,35.8,35.8,29.59,NNW,341,0.0,1.3,100,-99.99,,,-99.99,WSDL version 423,2013-09-06 11:09:00,
2013-09-06 07:14:00,35.9,35.9,29.59,North,350,0.0,0.9,100,-99.99,,,-99.99,WSDL version 423,2013-09-06 11:14:00,
2013-09-06 07:19:00,36.1,36.1,29.59,NNE,28,0.0,0.9,100,-99.99,,,-99.99,WSDL version 423,2013-09-06 11:19:00,
2013-09-06 07:24:00,36.3,36.3,29.59,NNE,20,0.1,1.3,100,-99.99,,,-99.99,WSDL version 423,2013-09-06 11:24:00,
2013-09-06 07:29:00,36.5,36.5,29.59,NNW,338,1.6,2.5,100,-99.99,,,-99.99,WSDL version 423,2013-09-06 11:29:00,
2013-09-06 07:34:00,36.8,36.8,29.59,North,354,0.8,2.7,100,-99.99,,,-99.99,WSDL version 423,2013-09-06 11:34:00,
2013-09-06 07:39:00,37.1,37.1,29.59,NNE,18,0.1,2.7,100,-99.99,,,-99.99,WSDL version 423,2013-09-06 11:39:00,
2013-09-06 07:44:00,37.4,37.4,29.59,NNW,338,0.0,1.3,100,-99.99,,,-99.99,WSDL version 423,2013-09-06 11:44:00,
2013-09-06 07:49:00,37.9,37.9,29.59,NNW,340,0.3,1.3,100,-99.99,,,-99.99,WSDL version 423,2013-09-06 11:49:00,
2013-09-06 07:54:00,38.3,38.3,29.59,North,349,1.0,2.0,100,-99.99,,,-99.99,WSDL version 423,2013-09-06 11:54:00,
2013-09-06 07:59:00,38.6,38.6,29.59,NNW,328,0.0,2.0,100,-99.99,,,-99.99,WSDL version 423,2013-09-06 11:59:00,
2013-09-06 08:04:00,39.0,39.0,29.59,NNW,333,1.2,2.0,100,-99.99,,,-99.99,WSDL version 423,2013-09-06 12:04:00,
2013-09-06 08:09:00,39.4,39.4,29.59,NNW,343,1.1,2.2,100,-99.99,,,-99.99,WSDL version 423,2013-09-06 12:09:00,
2013-09-06 08:14:00,39.7,39.7,29.59,North,3,1.3,2.2,100,-99.99,,,-99.99,WSDL version 423,2013-09-06 12:14:00,
2013-09-06 08:19:00,40.1,40.1,29.59,NNW,341,1.5,2.7,100,-99.99,,,-99.99,WSDL version 423,2013-09-06 12:19:00,
2013-09-06 08:24:00,40.6,40.6,29.59,NE,40,1.0,2.7,100,-99.99,,,-99.99,WSDL version 423,2013-09-06 12:24:00,
2013-09-06 08:29:00,41.1,41.1,29.59,NNW,340,0.0,2.5,100,-99.99,,,-99.99,WSDL version 423,2013-09-06 12:29:00,
2013-09-06 08:34:00,41.7,41.7,29.59,NNE,31,0.0,1.3,100,-99.99,,,-99.99,WSDL version 423,2013-09-06 12:34:00,
2013-09-06 08:39:00,42.2,42.2,29.56,ENE,70,0.0,1.1,100,-99.99,,,-99.99,WSDL version 423,2013-09-06 12:39:00,
2013-09-06 08:44:00,42.8,42.8,29.56,ENE,70,0.0,0.0,100,-99.99,,,-99.99,WSDL version 423,2013-09-06 12:44:00,
2013-09-06 08:49:00,43.6,43.6,29.56,NE,53,0.0,0.0,100,-99.99,,,-99.99,WSDL version 423,2013-09-06 12:49:00,
2013-09-06 08:54:00,44.2,44.2,29.59,North,3,0.0,0.0,100,-99.99,,,-99.99,WSDL version 423,2013-09-06 12:54:00,
2013-09-06 08:59:00,45.1,45.1,29.59,NNE,23,0.0,0.9,100,-99.99,,,-99.99,WSDL version 423,2013-09-06 12:59:00,
2013-09-06 09:04:00,46.2,46.2,29.59,NNW,340,0.0,1.3,100,-99.99,,,-99.99,WSDL version 423,2013-09-06 13:04:00,
2013-09-06 09:09:00,48.0,48.0,29.56,NNW,341,0.0,1.3,100,-99.99,,,-99.99,WSDL version 423,2013-09-06 13:09:00,
2013-09-06 09:14:00,50.1,50.1,29.56,West,270,0.0,0.0,100,-99.99,,,-99.99,WSDL version 423,2013-09-06 13:14:00,
2013-09-06 09:19:00,51.8,51.8,29.56,SE,135,0.0,0.0,100,-99.99,,,-99.99,WSDL version 423,2013-09-06 13:19:00,
2013-09-06 09:24:00,53.6,53.6,29.56,SSW,203,0.0,0.0,100,-99.99,,,-99.99,WSDL version 423,2013-09-06 13:24:00,
2013-09-06 09:29:00,55.6,55.6,29.56,SSW,203,0.0,0.0,100,-99.99,,,-99.99,WSDL version 423,2013-09-06 13:29:00,
2013-09-06 09:34:00,57.1,57.1,29.56,SSW,198,0.0,0.0,100,-99.99,,,-99.99,WSDL version 423,2013-09-06 13:34:00,
2013-09-06 09:39:00,58.1,57.1,29.56,SSW,203,0.0,0.0,93,-99.99,,,-99.99,WSDL version 423,2013-09-06 13:39:00,
2013-09-06 09:44:00,59.6,57.6,29.56,SSW,205,0.0,2.2,92,-99.99,,,-99.99,WSDL version 423,2013-09-06 13:44:00,
2013-09-06 09:49:00,61.0,57.3,29.56,SSW,200,0.0,2.2,83,-99.99,,,-99.99,WSDL version 423,2013-09-06 13:49:00,
2013-09-06 09:54:00,62.0,55.4,29.56,South,186,0.0,1.3,74,-99.99,,,-99.99,WSDL version 423,2013-09-06 13:54:00,
2013-09-06 09:59:00,63.4,54.2,29.56,SSW,203,0.0,0.0,72,-99.99,,,-99.99,WSDL version 423,2013-09-06 13:59:00,
2013-09-06 10:04:00,64.7,54.7,29.56,South,183,0.0,0.0,66,-99.99,,,-99.99,WSDL version 423,2013-09-06 14:04:00,
2013-09-06 10:09:00,65.7,54.0,29.56,SW,228,0.0,0.0,65,-99.99,,,-99.99,WSDL version 423,2013-09-06 14:09:00,
2013-09-06 10:14:00,66.5,49.1,29.56,SSW,210,2.3,3.8,49,-99.99,,,-99.99,WSDL version 423,2013-09-06 14:14:00,
2013-09-06 10:19:00,66.8,44.6,29.56,SSW,208,1.8,3.8,45,-99.99,,,-99.99,WSDL version 423,2013-09-06 14:19:00,
2013-09-06 10:24:00,67.6,44.7,29.56,SSW,210,1.3,3.6,43,-99.99,,,-99.99,WSDL version 423,2013-09-06 14:24:00,
2013-09-06 10:29:00,68.5,43.1,29.56,SSW,197,1.6,3.1,41,-99.99,,,-99.99,WSDL version 423,2013-09-06 14:29:00,
2013-09-06 10:34:00,69.1,42.9,29.56,WSW,258,0.5,3.1,36,-99.99,,,-99.99,WSDL version 423,2013-09-06 14:34:00,
2013-09-06 10:39:00,69.5,40.9,29.56,WSW,248,0.6,2.7,35,-99.99,,,-99.99,WSDL version 423,2013-09-06 14:39:00,
2013-09-06 10:44:00,70.1,41.1,29.56,NNW,343,1.4,2.9,34,-99.99,,,-99.99,WSDL version 423,2013-09-06 14:44:00,
2013-09-06 10:49:00,70.5,39.9,29.56,NNW,333,1.4,2.9,31,-99.99,,,-99.99,WSDL version 423,2013-09-06 14:49:00,
2013-09-06 10:54:00,70.5,39.0,29.53,WSW,241,1.7,3.4,32,-99.99,,,-99.99,WSDL version 423,2013-09-06 14:54:00,
2013-09-06 10:59:00,70.5,37.7,29.53,SE,128,2.0,4.0,31,-99.99,,,-99.99,WSDL version 423,2013-09-06 14:59:00,
2013-09-06 11:04:00,70.8,38.7,29.53,ENE,73,1.6,4.0,32,-99.99,,,-99.99,WSDL version 423,2013-09-06 15:04:00,
2013-09-06 11:09:00,71.2,37.6,29.53,SW,220,2.5,4.0,29,-99.99,,,-99.99,WSDL version 423,2013-09-06 15:09:00,
2013-09-06 11:14:00,71.3,37.1,29.53,SSW,203,1.5,4.0,28,-99.99,,,-99.99,WSDL version 423,2013-09-06 15:14:00,
2013-09-06 11:19:00,71.6,35.9,29.53,South,190,1.8,3.1,27,-99.99,,,-99.99,WSDL version 423,2013-09-06 15:19:00,
2013-09-06 11:24:00,71.7,35.1,29.53,South,190,2.1,3.1,26,-99.99,,,-99.99,WSDL version 423,2013-09-06 15:24:00,
2013-09-06 11:29:00,71.5,34.7,29.53,WSW,239,1.7,3.6,26,-99.99,,,-99.99,WSDL version 423,2013-09-06 15:29:00,
2013-09-06 11:34:00,71.9,35.0,29.53,SW,228,2.0,3.6,25,-99.99,,,-99.99,WSDL version 423,2013-09-06 15:34:00,
2013-09-06 11:39:00,72.2,34.1,29.53,West,270,3.2,4.3,24,-99.99,,,-99.99,WSDL version 423,2013-09-06 15:39:00,
2013-09-06 11:44:00,71.2,33.6,29.53,SSW,203,1.7,4.3,25,-99.99,,,-99.99,WSDL version 423,2013-09-06 15:44:00,
2013-09-06 11:49:00,70.5,34.6,29.53,WSW,248,0.6,2.7,27,-99.99,,,-99.99,WSDL version 423,2013-09-06 15:49:00,
2013-09-06 11:54:00,70.0,34.3,29.53,SW,225,0.8,2.5,27,-99.99,,,-99.99,WSDL version 423,2013-09-06 15:54:00,
2013-09-06 11:59:00,69.6,34.8,29.53,SSW,211,0.8,2.2,28,-99.99,,,-99.99,WSDL version 423,2013-09-06 15:59:00,
2013-09-06 12:04:00,70.0,34.3,29.53,SW,225,1.3,2.9,27,-99.99,,,-99.99,WSDL version 423,2013-09-06 16:04:00,
2013-09-06 12:09:00,70.5,35.1,29.53,SW,215,1.4,2.9,28,-99.99,,,-99.99,WSDL version 423,2013-09-06 16:09:00,
2013-09-06 12:14:00,72.0,37.0,29.53,SW,236,2.0,2.9,27,-99.99,,,-99.99,WSDL version 423,2013-09-06 16:14:00,
2013-09-06 12:19:00,73.0,36.9,29.53,WNW,283,0.4,2.9,26,-99.99,,,-99.99,WSDL version 423,2013-09-06 16:19:00,
2013-09-06 12:24:00,72.9,35.4,29.53,SW,233,2.3,4.3,25,-99.99,,,-99.99,WSDL version 423,2013-09-06 16:24:00,
2013-09-06 12:29:00,72.7,35.7,29.53,South,191,1.3,4.3,26,-99.99,,,-99.99,WSDL version 423,2013-09-06 16:29:00,
2013-09-06 12:34:00,73.1,36.1,29.53,SW,218,1.0,3.1,25,-99.99,,,-99.99,WSDL version 423,2013-09-06 16:34:00,
2013-09-06 12:39:00,73.1,34.2,29.53,South,183,1.5,3.4,24,-99.99,,,-99.99,WSDL version 423,2013-09-06 16:39:00,
2013-09-06 12:44:00,73.3,34.5,29.53,WSW,258,2.3,3.4,24,-99.99,,,-99.99,WSDL version 423,2013-09-06 16:44:00,
2013-09-06 12:49:00,72.2,33.5,29.53,ESE,113,0.9,3.6,24,-99.99,,,-99.99,WSDL version 423,2013-09-06 16:49:00,
2013-09-06 12:54:00,72.7,34.3,29.50,SW,223,1.6,4.5,24,-99.99,,,-99.99,WSDL version 423,2013-09-06 16:54:00,
2013-09-06 12:59:00,73.1,34.4,29.50,SSW,205,2.2,4.5,25,-99.99,,,-99.99,WSDL version 423,2013-09-06 16:59:00,
2013-09-06 13:04:00,73.5,34.7,29.50,SSW,200,2.1,3.1,24,-99.99,,,-99.99,WSDL version 423,2013-09-06 17:04:00,
2013-09-06 13:09:00,73.7,35.2,29.50,WSW,238,1.7,3.4,25,-99.99,,,-99.99,WSDL version 423,2013-09-06 17:09:00,
2013-09-06 13:14:00,73.7,34.1,29.50,SW,231,2.3,3.8,23,-99.99,,,-99.99,WSDL version 423,2013-09-06 17:14:00,
2013-09-06 13:19:00,73.6,33.5,29.50,NW,320,1.3,3.8,23,-99.99,,,-99.99,WSDL version 423,2013-09-06 17:19:00,
2013-09-06 13:24:00,73.4,34.1,29.50,SE,138,1.6,4.0,24,-99.99,,,-99.99,WSDL version 423,2013-09-06 17:24:00,
2013-09-06 13:29:00,73.2,34.3,29.50,SW,225,3.5,6.0,24,-99.99,,,-99.99,WSDL version 423,2013-09-06 17:29:00,
2013-09-06 13:34:00,73.0,34.5,29.50,South,174,2.6,6.0,24,-99.99,,,-99.99,WSDL version 423,2013-09-06 17:34:00,
2013-09-06 13:39:00,73.2,35.3,29.50,SW,220,1.9,3.6,25,-99.99,,,-99.99,WSDL version 423,2013-09-06 17:39:00,
2013-09-06 13:44:00,73.1,34.7,29.50,WSW,248,3.1,5.8,24,-99.99,,,-99.99,WSDL version 423,2013-09-06 17:44:00,
2013-09-06 13:49:00,73.2,35.1,29.50,East,82,2.2,5.8,25,-99.99,,,-99.99,WSDL version 423,2013-09-06 17:49:00,
2013-09-06 13:54:00,73.4,34.3,29.50,SW,220,2.9,3.8,24,-99.99,,,-99.99,WSDL version 423,2013-09-06 17:54:00,
2013-09-06 13:59:00,73.1,35.0,29.50,WSW,241,1.2,3.8,25,-99.99,,,-99.99,WSDL version 423,2013-09-06 17:59:00,
2013-09-06 14:04:00,72.0,34.3,29.50,South,185,2.3,4.0,25,-99.99,,,-99.99,WSDL version 423,2013-09-06 18:04:00,
2013-09-06 14:09:00,71.4,34.3,29.47,SSW,212,2.2,4.0,26,-99.99,,,-99.99,WSDL version 423,2013-09-06 18:09:00,
2013-09-06 14:14:00,71.0,34.4,29.47,SW,219,1.9,3.1,26,-99.99,,,-99.99,WSDL version 423,2013-09-06 18:14:00,
2013-09-06 14:19:00,70.8,35.0,29.47,SW,225,2.4,5.6,27,-99.99,,,-99.99,WSDL version 423,2013-09-06 18:19:00,
2013-09-06 14:24:00,71.7,36.4,29.47,SW,225,2.0,5.6,28,-99.99,,,-99.99,WSDL version 423,2013-09-06 18:24:00,
2013-09-06 14:29:00,72.1,37.6,29.47,SSW,198,1.3,3.1,29,-99.99,,,-99.99,WSDL version 423,2013-09-06 18:29:00,
2013-09-06 14:34:00,71.8,36.5,29.47,South,180,1.3,3.6,27,-99.99,,,-99.99,WSDL version 423,2013-09-06 18:34:00,
2013-09-06 14:39:00,70.6,34.0,29.47,South,176,1.5,3.6,26,-99.99,,,-99.99,WSDL version 423,2013-09-06 18:39:00,
2013-09-06 14:44:00,69.5,33.3,29.47,SSW,194,1.8,3.6,27,-99.99,,,-99.99,WSDL version 423,2013-09-06 18:44:00,
2013-09-06 14:49:00,70.0,35.2,29.47,SSW,213,2.2,4.3,28,-99.99,,,-99.99,WSDL version 423,2013-09-06 18:49:00,
2013-09-06 14:54:00,70.4,34.8,29.44,West,276,2.1,4.3,27,-99.99,,,-99.99,WSDL version 423,2013-09-06 18:54:00,
2013-09-06 14:59:00,70.3,35.4,29.44,SSE,163,1.9,4.3,28,-99.99,,,-99.99,WSDL version 423,2013-09-06 18:59:00,
2013-09-06 15:04:00,70.8,37.3,29.44,SSW,213,1.5,4.3,29,-99.99,,,-99.99,WSDL version 423,2013-09-06 19:04:00,
2013-09-06 15:09:00,70.9,36.1,29.47,SW,218,2.2,4.5,28,-99.99,,,-99.99,WSDL version 423,2013-09-06 19:09:00,
2013-09-06 15:14:00,71.0,37.0,29.47,SSW,210,1.3,4.5,29,-99.99,,,-99.99,WSDL version 423,2013-09-06 19:14:00,
2013-09-06 15:19:00,71.3,39.0,29.47,SW,222,0.8,2.9,31,-99.99,,,-99.99,WSDL version 423,2013-09-06 19:19:00,
2013-09-06 15:24:00,71.2,37.3,29.44,SW,236,2.3,3.4,28,-99.99,,,-99.99,WSDL version 423,2013-09-06 19:24:00,
2013-09-06 15:29:00,71.1,37.6,29.44,ESE,121,2.3,3.4,29,-99.99,,,-99.99,WSDL version 423,2013-09-06 19:29:00,
2013-09-06 15:34:00,71.0,39.3,29.44,WNW,284,1.6,3.4,32,-99.99,,,-99.99,WSDL version 423,2013-09-06 19:34:00,
2013-09-06 15:39:00,70.4,39.2,29.44,WSW,244,1.5,3.1,32,-99.99,,,-99.99,WSDL version 423,2013-09-06 19:39:00,
2013-09-06 15:44:00,70.3,39.1,29.44,South,172,1.1,3.1,32,-99.99,,,-99.99,WSDL version 423,2013-09-06 19:44:00,
2013-09-06 15:49:00,70.1,39.0,29.44,South,190,2.5,3.8,32,-99.99,,,-99.99,WSDL version 423,2013-09-06 19:49:00,
2013-09-06 15:54:00,69.3,38.2,29.44,SW,228,2.3,3.8,32,-99.99,,,-99.99,WSDL version 423,2013-09-06 19:54:00,
2013-09-06 15:59:00,69.1,38.8,29.44,WSW,238,1.9,3.8,33,-99.99,,,-99.99,WSDL version 423,2013-09-06 19:59:00,
2013-09-06 16:04:00,69.0,38.8,29.44,SSW,205,2.8,4.3,34,-99.99,,,-99.99,WSDL version 423,2013-09-06 20:04:00,
2013-09-06 16:09:00,68.9,39.3,29.44,NW,309,2.5,4.3,34,-99.99,,,-99.99,WSDL version 423,2013-09-06 20:09:00,
2013-09-06 16:14:00,69.2,39.9,29.44,SW,225,1.8,4.3,34,-99.99,,,-99.99,WSDL version 423,2013-09-06 20:14:00,
2013-09-06 16:19:00,69.0,39.5,29.44,South,183,3.2,5.6,34,-99.99,,,-99.99,WSDL version 423,2013-09-06 20:19:00,
2013-09-06 16:24:00,68.4,39.0,29.44,West,265,2.2,5.6,34,-99.99,,,-99.99,WSDL version 423,2013-09-06 20:24:00,
2013-09-06 16:29:00,68.0,39.1,29.44,WSW,242,2.0,4.0,35,-99.99,,,-99.99,WSDL version 423,2013-09-06 20:29:00,
2013-09-06 16:34:00,67.8,39.1,29.44,WSW,248,2.4,4.3,35,-99.99,,,-99.99,WSDL version 423,2013-09-06 20:34:00,
2013-09-06 16:39:00,67.6,39.3,29.44,South,170,2.2,4.3,36,-99.99,,,-99.99,WSDL version 423,2013-09-06 20:39:00,
2013-09-06 16:44:00,67.8,40.3,29.44,SW,228,1.0,3.6,37,-99.99,,,-99.99,WSDL version 423,2013-09-06 20:44:00,
2013-09-06 16:49:00,67.9,40.2,29.44,WSW,256,2.2,3.6,36,-99.99,,,-99.99,WSDL version 423,2013-09-06 20:49:00,
2013-09-06 16:54:00,67.6,39.9,29.44,SSW,203,1.5,3.6,37,-99.99,,,-99.99,WSDL version 423,2013-09-06 20:54:00,
2013-09-06 16:59:00,67.6,40.5,29.44,SSW,208,1.3,3.1,37,-99.99,,,-99.99,WSDL version 423,2013-09-06 20:59:00,
2013-09-06 17:04:00,67.7,41.0,29.44,ENE,71,1.3,2.5,37,-99.99,,,-99.99,WSDL version 423,2013-09-06 21:04:00,
2013-09-06 17:09:00,67.4,40.2,29.44,WNW,290,1.5,3.4,37,-99.99,,,-99.99,WSDL version 423,2013-09-06 21:09:00,
2013-09-06 17:14:00,67.2,40.4,29.44,West,265,0.8,3.4,38,-99.99,,,-99.99,WSDL version 423,2013-09-06 21:14:00,
2013-09-06 17:19:00,66.8,40.4,29.44,WSW,250,1.0,2.5,38,-99.99,,,-99.99,WSDL version 423,2013-09-06 21:19:00,
2013-09-06 17:24:00,66.6,39.8,29.44,SSE,148,2.2,4.0,37,-99.99,,,-99.99,WSDL version 423,2013-09-06 21:24:00,
2013-09-06 17:29:00,66.4,39.9,29.44,SW,214,2.1,4.0,38,-99.99,,,-99.99,WSDL version 423,2013-09-06 21:29:00,
2013-09-06 17:34:00,66.0,39.8,29.44,SW,218,2.1,3.8,39,-99.99,,,-99.99,WSDL version 423,2013-09-06 21:34:00,
2013-09-06 17:39:00,65.6,40.0,29.44,SSW,199,1.4,3.8,39,-99.99,,,-99.99,WSDL version 423,2013-09-06 21:39:00,
2013-09-06 17:44:00,65.5,40.7,29.44,SE,145,0.6,3.4,41,-99.99,,,-99.99,WSDL version 423,2013-09-06 21:44:00,
2013-09-06 17:49:00,65.2,41.2,29.44,SW,225,2.0,3.6,42,-99.99,,,-99.99,WSDL version 423,2013-09-06 21:49:00,
2013-09-06 17:54:00,64.9,41.3,29.44,SSW,203,1.6,3.6,42,-99.99,,,-99.99,WSDL version 423,2013-09-06 21:54:00,
2013-09-06 17:59:00,65.0,41.8,29.44,SW,218,1.3,2.9,43,-99.99,,,-99.99,WSDL version 423,2013-09-06 21:59:00,
2013-09-06 18:04:00,65.1,42.1,29.44,SSW,198,1.2,2.5,43,-99.99,,,-99.99,WSDL version 423,2013-09-06 22:04:00,
2013-09-06 18:09:00,65.3,42.3,29.44,SW,218,1.5,2.5,43,-99.99,,,-99.99,WSDL version 423,2013-09-06 22:09:00,
2013-09-06 18:14:00,65.3,42.6,29.44,SW,236,1.0,2.5,44,-99.99,,,-99.99,WSDL version 423,2013-09-06 22:14:00,
2013-09-06 18:19:00,65.3,42.4,29.44,SW,217,0.6,2.7,43,-99.99,,,-99.99,WSDL version 423,2013-09-06 22:19:00,
2013-09-06 18:24:00,65.2,42.4,29.44,SW,230,1.6,2.9,43,-99.99,,,-99.99,WSDL version 423,2013-09-06 22:24:00,
2013-09-06 18:29:00,64.9,42.1,29.44,SW,215,0.8,2.9,44,-99.99,,,-99.99,WSDL version 423,2013-09-06 22:29:00,
2013-09-06 18:34:00,64.7,42.2,29.44,South,191,1.0,2.9,44,-99.99,,,-99.99,WSDL version 423,2013-09-06 22:34:00,
2013-09-06 18:39:00,64.4,42.1,29.44,South,186,0.7,2.9,44,-99.99,,,-99.99,WSDL version 423,2013-09-06 22:39:00,
2013-09-06 18:44:00,64.2,41.9,29.44,South,174,1.5,2.7,44,-99.99,,,-99.99,WSDL version 423,2013-09-06 22:44:00,
2013-09-06 18:49:00,63.9,41.9,29.44,South,172,0.0,2.7,45,-99.99,,,-99.99,WSDL version 423,2013-09-06 22:49:00,
2013-09-06 18:54:00,63.4,41.7,29.44,SSW,213,1.1,2.0,45,-99.99,,,-99.99,WSDL version 423,2013-09-06 22:54:00,
2013-09-06 18:59:00,63.1,41.4,29.44,WNW,300,0.7,3.1,45,-99.99,,,-99.99,WSDL version 423,2013-09-06 22:59:00,
2013-09-06 19:04:00,62.6,41.0,29.44,SW,228,0.0,3.1,45,-99.99,,,-99.99,WSDL version 423,2013-09-06 23:04:00,
2013-09-06 19:09:00,62.3,41.3,29.44,SSW,206,1.1,2.2,46,-99.99,,,-99.99,WSDL version 423,2013-09-06 23:09:00,
2013-09-06 19:14:00,62.0,41.2,29.44,SSW,194,0.5,2.2,47,-99.99,,,-99.99,WSDL version 423,2013-09-06 23:14:00,
2013-09-06 19:19:00,61.7,41.3,29.44,SSW,197,0.1,2.5,47,-99.99,,,-99.99,WSDL version 423,2013-09-06 23:19:00,
2013-09-06 19:24:00,61.4,41.3,29.44,SSW,203,0.6,2.5,48,-99.99,,,-99.99,WSDL version 423,2013-09-06 23:24:00,
2013-09-06 19:29:00,61.1,41.3,29.44,SSW,210,0.0,2.5,48,-99.99,,,-99.99,WSDL version 423,2013-09-06 23:29:00,
2013-09-06 19:34:00,60.7,41.4,29.44,SSW,203,0.0,1.6,49,-99.99,,,-99.99,WSDL version 423,2013-09-06 23:34:00,
2013-09-06 19:39:00,60.6,41.7,29.41,SSW,203,0.4,1.6,50,-99.99,,,-99.99,WSDL version 423,2013-09-06 23:39:00,
2013-09-06 19:44:00,60.5,41.8,29.41,SSE,163,0.0,1.6,50,-99.99,,,-99.99,WSDL version 423,2013-09-06 23:44:00,
2013-09-06 19:49:00,60.4,42.1,29.41,SW,217,0.0,2.9,51,-99.99,,,-99.99,WSDL version 423,2013-09-06 23:49:00,
2013-09-06 19:54:00,60.3,42.1,29.44,SSW,211,0.4,5.4,51,-99.99,,,-99.99,WSDL version 423,2013-09-06 23:54:00,
2013-09-06 19:59:00,60.3,42.1,29.44,SW,225,0.0,5.4,51,-99.99,,,-99.99,WSDL version 423,2013-09-06 23:59:00,
2013-09-06 20:04:00,60.1,42.0,29.44,South,175,0.0,2.0,51,-99.99,,,-99.99,WSDL version 423,2013-09-07 00:04:00,
2013-09-06 20:09:00,60.1,41.9,29.41,SW,222,0.0,1.3,51,-99.99,,,-99.99,WSDL version 423,2013-09-07 00:09:00,
2013-09-06 20:14:00,60.1,42.2,29.41,SSE,168,0.0,1.1,52,-99.99,,,-99.99,WSDL version 423,2013-09-07 00:14:00,
2013-09-06 20:19:00,60.1,42.4,29.41,SSW,208,0.0,1.3,52,-99.99,,,-99.99,WSDL version 423,2013-09-07 00:19:00,
2013-09-06 20:24:00,60.1,42.4,29.41,SW,218,0.0,1.3,52,-99.99,,,-99.99,WSDL version 423,2013-09-07 00:24:00,
2013-09-06 20:29:00,59.9,42.3,29.41,SSW,213,0.0,1.3,52,-99.99,,,-99.99,WSDL version 423,2013-09-07 00:29:00,
2013-09-06 20:34:00,59.9,42.2,29.41,SSE,167,0.0,1.3,52,-99.99,,,-99.99,WSDL version 423,2013-09-07 00:34:00,
2013-09-06 20:39:00,59.7,42.1,29.41,South,190,0.0,1.6,52,-99.99,,,-99.99,WSDL version 423,2013-09-07 00:39:00,
2013-09-06 20:44:00,59.7,42.1,29.41,West,260,0.8,2.2,52,-99.99,,,-99.99,WSDL version 423,2013-09-07 00:44:00,
2013-09-06 20:49:00,59.7,42.1,29.41,SE,141,1.1,2.2,52,-99.99,,,-99.99,WSDL version 423,2013-09-07 00:49:00,
2013-09-06 20:54:00,59.5,41.9,29.41,SW,228,1.3,2.5,52,-99.99,,,-99.99,WSDL version 423,2013-09-07 00:54:00,
2013-09-06 20:59:00,59.5,41.9,29.41,ESE,113,1.0,2.5,52,-99.99,,,-99.99,WSDL version 423,2013-09-07 00:59:00,
2013-09-06 21:04:00,59.5,41.9,29.41,SSW,193,1.6,2.2,52,-99.99,,,-99.99,WSDL version 423,2013-09-07 01:04:00,
2013-09-06 21:09:00,59.4,42.2,29.41,South,177,1.1,2.2,53,-99.99,,,-99.99,WSDL version 423,2013-09-07 01:09:00,
2013-09-06 21:14:00,59.3,42.1,29.41,SSW,208,0.0,2.2,53,-99.99,,,-99.99,WSDL version 423,2013-09-07 01:14:00,
2013-09-06 21:19:00,59.2,42.2,29.41,SSW,193,0.5,3.6,54,-99.99,,,-99.99,WSDL version 423,2013-09-07 01:19:00,
2013-09-06 21:24:00,59.2,42.3,29.41,SSW,193,0.0,3.6,53,-99.99,,,-99.99,WSDL version 423,2013-09-07 01:24:00,
2013-09-06 21:29:00,59.0,42.4,29.41,South,173,0.6,2.2,54,-99.99,,,-99.99,WSDL version 423,2013-09-07 01:29:00,
2013-09-06 21:34:00,58.8,42.5,29.41,South,180,0.0,2.2,55,-99.99,,,-99.99,WSDL version 423,2013-09-07 01:34:00,
2013-09-06 21:39:00,58.7,42.5,29.41,SSW,195,0.0,1.3,55,-99.99,,,-99.99,WSDL version 423,2013-09-07 01:39:00,
2013-09-06 21:44:00,58.5,42.4,29.41,South,180,0.0,1.1,55,-99.99,,,-99.99,WSDL version 423,2013-09-07 01:44:00,
2013-09-06 21:49:00,58.3,42.7,29.41,SSW,198,0.0,1.1,56,-99.99,,,-99.99,WSDL version 423,2013-09-07 01:49:00,
2013-09-06 21:54:00,58.1,42.5,29.38,South,180,0.2,1.1,56,-99.99,,,-99.99,WSDL version 423,2013-09-07 01:54:00,
2013-09-06 21:59:00,58.0,42.5,29.38,SE,141,0.0,1.1,56,-99.99,,,-99.99,WSDL version 423,2013-09-07 01:59:00,
2013-09-06 22:04:00,57.9,42.6,29.38,SSW,198,0.0,1.3,57,-99.99,,,-99.99,WSDL version 423,2013-09-07 02:04:00,
2013-09-06 22:09:00,57.8,42.8,29.38,SW,236,0.0,1.3,58,-99.99,,,-99.99,WSDL version 423,2013-09-07 02:09:00,
2013-09-06 22:14:00,57.7,42.8,29.38,SSW,203,0.0,0.9,58,-99.99,,,-99.99,WSDL version 423,2013-09-07 02:14:00,
2013-09-06 22:19:00,57.6,42.9,29.38,South,169,0.0,0.0,58,-99.99,,,-99.99,WSDL version 423,2013-09-07 02:19:00,
2013-09-06 22:24:00,57.5,43.0,29.38,South,185,0.0,0.0,59,-99.99,,,-99.99,WSDL version 423,2013-09-07 02:24:00,
2013-09-06 22:29:00,57.4,43.3,29.38,SW,220,0.0,0.0,60,-99.99,,,-99.99,WSDL version 423,2013-09-07 02:29:00,
2013-09-06 22:34:00,57.3,43.6,29.38,SSW,200,0.0,0.0,60,-99.99,,,-99.99,WSDL version 423,2013-09-07 02:34:00,
2013-09-06 22:39:00,57.3,43.8,29.38,South,183,0.0,0.0,61,-99.99,,,-99.99,WSDL version 423,2013-09-07 02:39:00,
2013-09-06 22:44:00,57.4,44.1,29.38,WSW,248,0.0,0.0,61,-99.99,,,-99.99,WSDL version 423,2013-09-07 02:44:00,
2013-09-06 22:49:00,57.4,44.5,29.38,SW,228,0.0,0.0,62,-99.99,,,-99.99,WSDL version 423,2013-09-07 02:49:00,
2013-09-06 22:54:00,57.4,44.5,29.38,SW,225,0.0,0.0,62,-99.99,,,-99.99,WSDL version 423,2013-09-07 02:54:00,
2013-09-06 22:59:00,57.4,44.9,29.38,WSW,243,0.0,0.0,63,-99.99,,,-99.99,WSDL version 423,2013-09-07 02:59:00,
2013-09-06 23:04:00,57.6,45.1,29.38,WSW,243,0.0,0.0,63,-99.99,,,-99.99,WSDL version 423,2013-09-07 03:04:00,
2013-09-06 23:09:00,57.6,45.2,29.38,SW,236,0.0,0.0,64,-99.99,,,-99.99,WSDL version 423,2013-09-07 03:09:00,
2013-09-06 23:14:00,57.6,45.5,29.38,WSW,238,0.0,0.0,64,-99.99,,,-99.99,WSDL version 423,2013-09-07 03:14:00,
2013-09-06 23:19:00,57.6,45.5,29.38,WSW,248,0.0,0.0,64,-99.99,,,-99.99,WSDL version 423,2013-09-07 03:19:00,
2013-09-06 23:24:00,57.6,45.6,29.38,WSW,242,0.0,0.0,65,-99.99,,,-99.99,WSDL version 423,2013-09-07 03:24:00,
2013-09-06 23:29:00,57.6,45.9,29.38,SW,225,0.0,0.0,65,-99.99,,,-99.99,WSDL version 423,2013-09-07 03:29:00,
2013-09-06 23:34:00,57.6,45.9,29.38,WSW,238,0.0,0.0,65,-99.99,,,-99.99,WSDL version 423,2013-09-07 03:34:00,
2013-09-06 23:39:00,57.6,45.9,29.38,WSW,253,0.0,0.0,65,-99.99,,,-99.99,WSDL version 423,2013-09-07 03:39:00,
2013-09-06 23:44:00,57.6,46.2,29.38,SW,225,0.0,0.0,66,-99.99,,,-99.99,WSDL version 423,2013-09-07 03:44:00,
2013-09-06 23:49:00,57.4,46.2,29.38,North,360,0.0,0.0,66,-99.99,,,-99.99,WSDL version 423,2013-09-07 03:49:00,
2013-09-06 23:54:00,57.2,46.3,29.38,North,6,0.0,0.0,67,-99.99,,,-99.99,WSDL version 423,2013-09-07 03:54:00,
2013-09-06 23:59:00,57.1,46.5,29.38,NE,53,0.0,0.0,68,-99.99,,,-99.99,WSDL version 423,2013-09-07 03:59:00,